Flag for Germany Weather past 2 weeks in Norden, Lower Saxony, Germany

Now
70 °F

Passing clouds.


Feels Like: 70 °F
Forecast: 65 / 80 °F
Wind: 2 mph from Southeast

Location: Norderney

Current Time: Aug 2, 2014 at 12:34:00 AM

Latest Report: Aug 2, 2014 at 12:00 AM


Visibility: 4 mi

Pressure: 29.81 "Hg

Humidity: 76%

Dew point: 62 °F

Location of NordenLocation

Historic Weather in Norden — Graph

°F

Norden temperature yesterday

Maximum temperature yesterday: 77 °F (at 1:00 PM)
Minimum temperature yesterday: 64 °F (at 7:00 AM)
Average temperature yesterday: 70 °F

Past Weeks' High & Low Weather Summary

 TemperatureHumidityPressure
High92 °F (Jul 19, 4:00 PM)96% (Jul 21, 9:00 AM)30.20 "Hg (Jul 21, 9:00 AM)
Low64 °F (Jul 18, 4:00 AM)26% (Jul 19, 6:00 PM)29.79 "Hg (Jul 20, 7:00 AM)
Average70 °F77%29.96 "Hg
* Reported Jul 17 11:00 PM — Aug 1 11:00 PM, Norden, Weather by CustomWeather, © 2014

Note: Actual official high and low records may vary slightly from our data, if they occured in-between our weather recording intervals... More about our weather records

Advertising

Norden weather history for previous 24 hours

 ConditionsComfort  
Time TempWeatherWind HumidityBarometerVisibility
11:00 PM
Aug 1
71 °FClear.3 mph78%29.81 "Hg5 mi
10:00 PM69 °FClear.3 mph86%29.80 "Hg5 mi
9:00 PM71 °FPartly sunny.5 mph81%29.80 "Hg8 mi
8:00 PM72 °FPassing clouds.7 mph76%29.80 "Hg11 mi
7:00 PM72 °FScattered clouds.7 mph74%29.80 "Hg10 mi
6:00 PM74 °FScattered clouds.7 mph67%29.81 "Hg9 mi
5:00 PM76 °FPartly sunny.6 mph65%29.83 "Hg10 mi
4:00 PM76 °FPassing clouds.6 mph64%29.83 "Hg9 mi
3:00 PM77 °FScattered clouds.5 mph58%29.84 "Hg8 mi
2:00 PM76 °FScattered clouds.3 mph47%29.85 "Hg7 mi
1:00 PM77 °FPartly sunny.3 mph46%29.85 "Hg9 mi
12:00 PM75 °FPartly sunny.5 mph51%29.86 "Hg9 mi
11:00 AM73 °FPartly sunny.5 mph57%29.87 "Hg9 mi
10:00 AM71 °FScattered clouds.5 mph61%29.87 "Hg9 mi
9:00 AM68 °FScattered clouds.3 mph72%29.87 "Hg7 mi
8:00 AM65 °FScattered clouds.5 mph77%29.87 "Hg6 mi
7:00 AM64 °FScattered clouds.5 mph79%29.87 "Hg6 mi
6:00 AM65 °FSunny.5 mph80%29.88 "Hg3 mi
5:00 AM65 °FFog.5 mph82%29.89 "Hg3 mi
4:00 AM65 °FFog.2 mph85%29.89 "Hg2 mi
3:00 AM66 °FFog.3 mph85%29.90 "Hg3 mi
2:00 AM67 °FFog.3 mph84%29.91 "Hg4 mi
1:00 AM67 °FFog.3 mph87%29.91 "Hg4 mi
12:00 AM67 °FFog.2 mph85%29.91 "Hg4 mi
Weather by CustomWeather, © 2014

See weather overviewHow to use our weather pages